World > North America > United States > New York

Hourly West Milton, NY Regional Weather

Feedback E-mail the Weather

Latest News

West Milton, NY Weather Maps

°F °C°F °C
West Milton Weather Map
UTC Time: 5/21/2022, 01:50
Your Time:

West Milton, NY Regional Weather

Expires:202205210200;;353694
ASUS41 KALY 210110
RWRALY

NEW YORK STATE HOURLY WEATHER ROUNDUP
NATIONAL WEATHER SERVICE ALBANY NY
900 PM EDT FRI MAY 20 2022

NOTE: "FAIR" INDICATES FEW OR NO CLOUDS BELOW 12,000 FEET WITH NO
SIGNIFICANT WEATHER AND/OR NO OBSTRUCTIONS TO VISIBILITY.


NYZ032-033-038>043-046>054-057>066-NYZ062>081-082-084-210200-
EAST

  
CITY           SKY/WX    TMP DP  RH WIND       PRES   REMARKS
ALBANY         MOCLDY    70  60  70 S15G22    29.90R                  
GLENS FALLS    PTCLDY    71  59  65 S14G26    29.88R                  
POUGHKEEPSIE   LGT RAIN  65  62  90 SE3       29.94R                  
NEWBURGH       DRIZZLE   63  63 100 SE12      29.94S FOG              
MONTGOMERY     LGT RAIN  63  62  97 SW5       29.92S                  
WHITE PLAINS   LGT RAIN  62  60  93 NE6       29.95R FOG              
ISLIP          LGT RAIN  65  64  97 SE8       29.95S                  
NEW YORK CITY  CLOUDY    62  59  90 NE9       29.94R FOG              
CENTRAL PARK   CLOUDY    65  63  93 NE3       29.97R FOG              
$$


SKY/WX - Weather  TMP - Temperature  DP - Dew Point  RH - Humidity
WIND - Wind Direction/Speed PRES - Barometric Pressure VSB - Visibility
WCI - Wind Chill Index E13G22 Wind - East Wind 13 mph/Gusts of 22 mph

Trending Headlines

West Milton Radar Loop



West Milton Quick Facts


National Two Day Weather Forecast


E-mail the West Milton Weather Forecast

Voice your opinion or tell us about page issues...